Sturgeon Bay, WI

7:56 PM CDT on October 16, 2019 (GMT -0500)
Door County Cherryland

Weather History for KSUE - August, 2019

Change the Weather History Date:

Tuesday, August 27, 2019

  Actual Average Record
Temperature  
Mean Temperature 68 °F -  
Max Temperature 75 °F 77 °F 95 °F (1953)
Min Temperature 59 °F 58 °F 33 °F (1915)
Cooling Degree Days 2    
Growing Degree Days 18 (Base 50)    
Moisture  
Dew Point 59 °F    
Average Humidity 79    
Maximum Humidity 100    
Minimum Humidity 51    
Precipitation  
Precipitation 0.13 in - - ()
Sea Level Pressure  
Sea Level Pressure 29.68 in    
Wind  
Wind Speed 11 mph (WSW)    
Max Wind Speed 16 mph    
Max Gust Speed 23 mph    
Visibility 10 miles    
Events Thunderstorm    
Averages and records for this station are not official NWS values.
T = Trace of Precipitation, MM = Missing Value Source: NWS Daily Summary

Daily Weather History Graph

Daily Weather History Graph

Search for Another Location

Airport or City:

Astronomy

Aug. 27, 2019 Rise Set
Actual Time 6:05 AM CDT 7:35 PM CDT
Civil Twilight 5:35 AM CDT 8:06 PM CDT
Nautical Twilight 4:57 AM CDT 8:43 PM CDT
Astronomical Twilight 4:18 AM CDT 9:22 PM CDT
Moon 2:20 AM CDT (8/27) 6:05 PM CDT (8/27)
Length of Visible Light 14h 31m
Length of Day
13h 30m
Waning Crescent, 11% of the Moon is Illuminated
Aug 27
Waning Crescent
Aug 30
New
Sep 5
First Quarter
Sep 13
Full
Sep 21
Last Quarter

Hourly Weather History & Observations

Time (CDT) Temp. Dew Point Humidity Pressure Visibility Wind Dir Wind Speed Gust Speed Precip Events Conditions
12:15 AM 66.2 °F 66.2 °F 100% 29.61 in 10.0 mi West 9.2 mph - 0.04 in   Overcast
12:56 AM 64.0 °F 64.0 °F 100% 29.60 in 10.0 mi West 11.5 mph - 0.10 in   Overcast
1:56 AM 63.0 °F 62.1 °F 97% 29.60 in 10.0 mi West 13.8 mph 18.4 mph 0.03 in   Overcast
2:47 AM 64.4 °F 62.6 °F 94% 29.62 in 10.0 mi West 12.7 mph - N/A   Overcast
2:56 AM 64.0 °F 62.1 °F 93% 29.61 in 10.0 mi WSW 10.4 mph 20.7 mph N/A   Overcast
3:56 AM 64.0 °F 62.1 °F 93% 29.63 in 10.0 mi West 10.4 mph - N/A   Overcast
4:31 AM 62.6 °F 62.6 °F 100% 29.64 in 10.0 mi WSW 10.4 mph - N/A   Overcast
4:56 AM 63.0 °F 62.1 °F 97% 29.64 in 10.0 mi WSW 10.4 mph - N/A   Mostly Cloudy
5:25 AM 62.6 °F 60.8 °F 94% 29.65 in 10.0 mi WSW 9.2 mph - N/A   Partly Cloudy
5:56 AM 62.1 °F 60.1 °F 93% 29.65 in 10.0 mi SW 8.1 mph - N/A   Clear
6:56 AM 62.1 °F 60.1 °F 93% 29.66 in 10.0 mi WSW 11.5 mph - N/A   Partly Cloudy
7:19 AM 62.6 °F 60.8 °F 94% 29.67 in 10.0 mi WSW 10.4 mph - N/A   Mostly Cloudy
7:28 AM 62.6 °F 60.8 °F 94% 29.67 in 10.0 mi WSW 16.1 mph 23.0 mph N/A   Overcast
7:56 AM 62.1 °F 60.1 °F 93% 29.68 in 10.0 mi WSW 6.9 mph - N/A   Overcast
8:09 AM 62.6 °F 60.8 °F 94% 29.68 in 10.0 mi SW 9.2 mph - N/A   Overcast
8:56 AM 64.0 °F 59.0 °F 84% 29.68 in 10.0 mi West 15.0 mph - N/A   Overcast
9:56 AM 66.9 °F 59.0 °F 76% 29.69 in 10.0 mi WSW 12.7 mph 20.7 mph N/A   Overcast
10:56 AM 68.0 °F 59.0 °F 73% 29.70 in 10.0 mi WSW 16.1 mph - N/A   Mostly Cloudy
11:23 AM 68.0 °F 59.0 °F 73% 29.71 in 10.0 mi WSW 13.8 mph - N/A   Partly Cloudy
11:56 AM 70.0 °F 60.1 °F 71% 29.69 in 10.0 mi WSW 16.1 mph - N/A   Clear
12:56 PM 72.0 °F 60.1 °F 66% 29.69 in 10.0 mi SW 12.7 mph 19.6 mph N/A   Clear
1:56 PM 73.9 °F 59.0 °F 59% 29.68 in 10.0 mi WSW 16.1 mph 21.9 mph N/A   Clear
2:16 PM 73.4 °F 57.2 °F 57% 29.69 in 10.0 mi SW 9.2 mph 21.9 mph N/A Thunderstorm Clear
2:31 PM 75.2 °F 57.2 °F 53% 29.68 in 10.0 mi SW 15.0 mph - N/A   Clear
2:56 PM 73.0 °F 57.0 °F 57% 29.68 in 10.0 mi SW 15.0 mph - N/A   Mostly Cloudy
3:56 PM 69.1 °F 60.1 °F 73% 29.67 in 10.0 mi South 12.7 mph - 0.00 in   Mostly Cloudy
4:56 PM 72.0 °F 60.1 °F 66% 29.69 in 10.0 mi SW 11.5 mph - N/A   Clear
5:56 PM 73.0 °F 54.0 °F 51% 29.70 in 10.0 mi WSW 11.5 mph 19.6 mph N/A   Clear
6:56 PM 70.0 °F 51.1 °F 51% 29.71 in 10.0 mi WSW 9.2 mph - N/A   Clear
7:56 PM 66.0 °F 53.1 °F 63% 29.73 in 10.0 mi SSW 9.2 mph 21.9 mph N/A   Clear
8:56 PM 63.0 °F 50.0 °F 63% 29.77 in 10.0 mi WSW 9.2 mph - N/A   Mostly Cloudy
9:56 PM 61.0 °F 51.1 °F 70% 29.76 in 10.0 mi SW 5.8 mph - N/A   Clear
10:56 PM 60.1 °F 50.0 °F 69% 29.75 in 10.0 mi SW 9.2 mph - N/A   Clear
11:56 PM 59.0 °F 48.9 °F 69% 29.74 in 10.0 mi SSW 9.2 mph - N/A   Clear